Location: Berlise
(49.6641°N, 4.1077°E)
Time: 18:45:08
(UTC+00:00)

Cosmos 1602 Rocket - Pass Details

Date: 27 January 2021
Orbit: 604 x 632 km, 82.5° (Epoch: 26 February)

Event Time Altitude Azimuth Distance (km) Brightness Sun altitude
Exits shadow 04:40:25 43° 16° (NNE) 895 4.4 -26.1°
Maximum altitude 04:41:42 64° 78° (ENE) 704 3.9 -25.9°
Drops below altitude 10° 04:46:08 10° 160° (SSE) 2,011 6.4 -25.2°
Sets 04:48:23 0° 163° (SSE) 2,915 7.2 -24.8°
